Content
SEND FEEDBACK

Daily
Averages
Monthly
Summary
United States of America

DANSVILLE, NEW YORK


Home > North America > United States > New York
Elevation: 662 feet     Latitude: 42 34N     Longitude: 077 42W

WEATHER
 
SELECT A DAY
Number of Records: 156,016;   Date Range: 3/1/00 - 7/27/14
 
SHARE

PRINT THIS DATA

[ ← Previous Day ]
WEATHER ALMANAC - JANUARY 31, 2013
[ Next Day → ]
[ °C ]   °F
Weather ElementAverageHighLow
Temperature29.2 °F55.4 °F (1:00 am)21.2 °F (10:04 pm)
Dewpoint21.9 °F52 °F (12:54 am)14 °F (5:54 pm)
Humidity74.5 %93 % (12:54 am)56 % (11:54 am)
Barometer29.52 in29.76 in (11:54 pm)29.07 in (1:00 am)
Wind Speed8.9 mph18.4 mph (5:36 am)
Wind Gust34.5 mph (4:54 am)
Weather ElementAverage
Visibility4.2 mi
Wind DirectionSW (219.5 °)

Weather ElementTotal
Precipitation0.59 in
Heating Degree Days26.7 (Base 65)
Averaged from 62 records on January 31, 2013
WEATHER CONDITIONS BREAKOUT
WIND DIRECTION BREAKOUT
WEATHER BY HOUR - JANUARY 31, 2013
[ °C ]   °F
Local TimeTemperatureDewpointHumidityBarometerVisibilityWind DirectionWind SpeedGust SpeedPrecipitationEventsConditions
12:54 AM54.0 °F52.0 °F93 %29.10 in2.5 miCalm0.10 inRainRain
1:00 AM55.4 °F51.8 °F88 %29.07 in5.0 miSW (230°)8.1 mph0.01 inRainRain
1:20 AM55.4 °F48.2 °F77 %29.08 in7.0 miSW (230°)10.4 mph19.6 mph0.05 inRainLight Rain
1:54 AM45.0 °F39.9 °F82 %29.14 in10.0 miWNW (290°)9.2 mph25.3 mph0.09 inRainLight Rain
2:54 AM41.0 °F35.1 °F79 %29.16 in10.0 miVariable6.9 mph19.6 mph0.14 inRainLight Rain
3:54 AM41.0 °F33.1 °F73 %29.16 in10.0 miVariable5.8 mph0.00 inOvercast
4:54 AM37.9 °F28.0 °F68 %29.22 in10.0 miWest (280°)17.3 mph34.5 mph0.00 inMostly Cloudy
5:22 AM35.6 °F28.4 °F75 %29.21 in4.0 miWest (280°)11.5 mph32.2 mph0.01 inSnowLight Snow
5:36 AM35.6 °F26.6 °F70 %29.22 in9.0 miWest (270°)18.4 mph28.8 mph0.01 inSnowLight Snow
5:54 AM36.0 °F25.0 °F64 %29.26 in10.0 miWest (270°)10.4 mph33.4 mph0.01 inOvercast
7:54 AM32.0 °F19.9 °F61 %29.37 in5.0 miWest (280°)11.5 mph27.6 mph0.00 inSnowLight Snow
8:54 AM32.0 °F21.0 °F64 %29.41 in8.0 miVariable5.8 mph0.00 inSnowLight Snow
9:54 AM30.9 °F21.0 °F67 %29.45 in7.0 miWNW (290°)13.8 mph24.2 mph0.00 inSnowLight Snow
10:35 AM30.2 °F21.2 °F69 %29.43 in2.5 miWNW (300°)17.3 mph29.9 mph0.00 inSnowLight Snow
10:43 AM30.2 °F21.2 °F69 %29.43 in1.0 miWest (280°)8.1 mph29.9 mph0.00 inSnowLight Snow
10:51 AM30.2 °F21.2 °F69 %29.43 in3.0 miWest (280°)9.2 mph27.6 mph0.00 inSnowLight Snow
10:54 AM30.0 °F19.9 °F66 %29.47 in7.0 miWNW (290°)13.8 mph27.6 mph0.00 inSnowLight Snow
11:15 AM30.2 °F19.4 °F64 %29.44 in8.0 miWest (280°)10.4 mph21.9 mph0.00 inSnowLight Snow
11:54 AM32.0 °F18.0 °F56 %29.50 in10.0 miWest (260°)12.7 mph25.3 mph0.00 inOvercast
12:47 PM28.4 °F19.4 °F69 %29.48 in2.0 miWest (280°)10.4 mph19.6 mph0.00 inSnowLight Snow
12:54 PM28.9 °F21.0 °F72 %29.52 in1.0 miWest (260°)11.5 mph17.3 mph0.00 inSnowLight Snow
1:03 PM26.6 °F21.2 °F80 %29.50 in0.2 miWest (270°)11.5 mph18.4 mph0.00 inSnowHeavy Snow
1:16 PM26.6 °F23.0 °F86 %29.50 in0.5 miWNW (300°)13.8 mph20.7 mph0.01 inFog-SnowSnow
1:25 PM26.6 °F23.0 °F86 %29.50 in0.2 miWest (270°)9.2 mph20.7 mph0.01 inFog-SnowSnow
1:29 PM26.6 °F21.2 °F80 %29.50 in0.5 miWest (270°)9.2 mph19.6 mph0.01 inSnowSnow
1:36 PM28.4 °F19.4 °F69 %29.51 in2.5 miWest (270°)11.5 mph26.5 mph0.01 inSnowLight Snow
1:43 PM28.4 °F19.4 °F69 %29.51 in7.0 miWNW (290°)11.5 mph26.5 mph0.01 inSnowLight Snow
1:51 PM28.4 °F17.6 °F64 %29.51 in9.0 miWest (270°)8.1 mph20.7 mph0.01 inOvercast
1:54 PM28.9 °F17.1 °F61 %29.56 in9.0 miWest (280°)8.1 mph20.7 mph0.01 inOvercast
2:54 PM28.0 °F19.0 °F69 %29.59 in3.0 miWest (270°)9.2 mph0.00 inSnowLight Snow
3:05 PM28.4 °F19.4 °F69 %29.55 in3.0 miNW (320°)6.9 mph16.1 mph0.00 inSnowLight Snow
3:15 PM28.4 °F19.4 °F69 %29.55 in2.5 miNW (310°)12.7 mph19.6 mph0.00 inSnowLight Snow
3:30 PM26.6 °F21.2 °F80 %29.56 in3.0 miNNW (330°)8.1 mph0.00 inSnowLight Snow
3:54 PM27.0 °F19.0 °F72 %29.61 in4.0 miWest (270°)13.8 mph29.9 mph0.00 inSnowLight Snow
4:00 PM26.6 °F17.6 °F69 %29.57 in2.5 miWest (280°)11.5 mph29.9 mph0.00 inSnowLight Snow
4:03 PM26.6 °F19.4 °F74 %29.57 in0.8 miWest (280°)12.7 mph26.5 mph0.00 inSnowLight Snow
4:07 PM26.6 °F21.2 °F80 %29.57 in0.2 miWNW (290°)13.8 mph26.5 mph0.00 inSnowHeavy Snow
4:17 PM26.6 °F21.2 °F80 %29.58 in0.5 miWest (280°)6.9 mph0.00 inSnowSnow
4:24 PM26.6 °F21.2 °F80 %29.58 in1.0 miVariable5.8 mph0.00 inSnowLight Snow
4:36 PM26.6 °F21.2 °F80 %29.59 in0.8 miVariable4.6 mph0.01 inSnowLight Snow
4:38 PM26.6 °F21.2 °F80 %29.59 in1.0 miVariable5.8 mph0.01 inSnowLight Snow
4:49 PM26.6 °F19.4 °F74 %29.60 in0.8 miWest (280°)9.2 mph0.01 inSnowLight Snow
4:54 PM25.0 °F19.9 °F81 %29.64 in0.5 miWest (270°)8.1 mph0.01 inSnowSnow
5:17 PM26.6 °F17.6 °F69 %29.61 in3.0 miWSW (240°)9.2 mph20.7 mph0.00 inSnowLight Snow
5:39 PM26.6 °F15.8 °F64 %29.62 in8.0 miWSW (250°)10.4 mph23.0 mph0.00 inSnowLight Snow
5:54 PM26.1 °F14.0 °F60 %29.68 in10.0 miWest (260°)10.4 mph26.5 mph0.00 inOvercast
6:54 PM25.0 °F14.0 °F63 %29.71 in10.0 miVariable3.5 mph21.9 mph0.00 inOvercast
7:54 PM24.1 °F14.0 °F65 %29.72 in8.0 miVariable4.6 mph0.00 inSnowLight Snow
8:50 PM24.8 °F15.8 °F69 %29.68 in4.0 miCalm0.00 inSnowLight Snow
8:54 PM24.1 °F16.0 °F71 %29.73 in4.0 miVariable6.9 mph0.00 inSnowLight Snow
9:04 PM24.8 °F15.8 °F69 %29.68 in6.0 miWest (270°)8.1 mph0.00 inSnowLight Snow
9:37 PM24.8 °F15.8 °F69 %29.69 in2.5 miWNW (300°)5.8 mph0.00 inSnowLight Snow
9:46 PM23.0 °F17.6 °F80 %29.69 in1.2 miNW (320°)3.5 mph0.00 inSnowLight Snow
10:04 PM21.2 °F19.4 °F93 %29.69 in0.8 miNNW (330°)4.6 mph0.01 inSnowLight Snow
10:14 PM21.2 °F19.4 °F93 %29.69 in1.0 miCalm0.01 inSnowLight Snow
10:34 PM21.2 °F19.4 °F93 %29.69 in2.0 miCalm0.01 inSnowLight Snow
10:49 PM21.2 °F17.6 °F86 %29.70 in1.5 miVariable4.6 mph0.01 inSnowLight Snow
11:01 PM23.0 °F17.6 °F80 %29.70 in5.0 miNW (310°)8.1 mph0.00 inSnowLight Snow
11:11 PM21.2 °F17.6 °F86 %29.70 in1.8 miNNW (330°)10.4 mph0.00 inSnowLight Snow
11:19 PM21.2 °F19.4 °F93 %29.70 in0.8 miNW (310°)9.2 mph0.00 inSnowLight Snow
11:33 PM21.2 °F17.6 °F86 %29.70 in1.2 miNW (310°)8.1 mph0.01 inSnowLight Snow
11:54 PM21.9 °F18.0 °F85 %29.76 in3.0 miNNW (330°)8.1 mph0.01 inSnowLight Snow
Hourly data recorded from KDSV, located miles away from Dansville, New York







STORIES FROM OUR PARTNERS